owner,sensor,date,latitude,longitude,vertical_datum,wind_speed,wind_to_direction,wind_speed_of_gust,qcFlag 
TABS,ioos:station:wmo:42043:1,2009-01-01T00:00:00Z,28.9818,-94.9186,4.0,6.420669747,72.69350553,7.78,'11111222,11111222,11111222' 
TABS,ioos:station:wmo:42043:1,2009-01-01T00:30:00Z,28.9818,-94.9186,4.0,6.305632403,71.79454433,7.95,'11111222,11111222,11111222' 
TABS,ioos:station:wmo:42043:1,2009-01-01T01:00:00Z,28.9818,-94.9186,4.0,6.515519933,72.67707038,8.35,'11111222,11111222,11111222' 
TABS,ioos:station:wmo:42043:1,2009-01-01T01:30:00Z,28.9818,-94.9186,4.0,7.760889124,70.81758423,9.53,'11111222,11111222,11111222' 
TABS,ioos:station:wmo:42043:1,2009-01-01T02:00:00Z,28.9818,-94.9186,4.0,7.632856608,70.16402286,9.64,'11111222,11111222,11111222' 
TABS,ioos:station:wmo:42043:1,2009-01-01T02:30:00Z,28.9818,-94.9186,4.0,7.070898104,71.35968088,8.97,'11111222,11111222,11111222' 
TABS,ioos:station:wmo:42043:1,2009-01-01T03:00:00Z,28.9818,-94.9186,4.0,7.679270799,70.52648042,9.75,'11111222,11111222,11111222' 
TABS,ioos:station:wmo:42043:1,2009-01-01T03:30:00Z,28.9818,-94.9186,4.0,8.245059127,64.95755552,10.01,'11111222,11111222,11111222' 
TABS,ioos:station:wmo:42043:1,2009-01-01T04:00:00Z,28.9818,-94.9186,4.0,7.76430937,64.19364691,10.01,'11111222,11111222,11111222' 
TABS,ioos:station:wmo:42043:1,2009-01-01T04:30:00Z,28.9818,-94.9186,4.0,7.858613109,62.48898794,9.79,'11111222,11111222,11111222' 
TABS,ioos:station:wmo:42043:1,2009-01-01T05:00:00Z,28.9818,-94.9186,4.0,7.598170833,63.33342066,9.66,'11111222,11111222,11111222' 
TABS,ioos:station:wmo:42043:1,2009-01-01T05:30:00Z,28.9818,-94.9186,4.0,7.806798319,83.08395245,9.8,'11111222,11111222,11111222' 
TABS,ioos:station:wmo:42043:1,2009-01-01T06:00:00Z,28.9818,-94.9186,4.0,8.25702731,83.8816257,10.42,'11111222,11111222,11111222' 
TABS,ioos:station:wmo:42043:1,2009-01-01T06:30:00Z,28.9818,-94.9186,4.0,7.797980508,85.14442202,10.04,'11111222,11111222,11111222' 
TABS,ioos:station:wmo:42043:1,2009-01-01T07:00:00Z,28.9818,-94.9186,4.0,7.770643474,90.7377759,9.88,'11111222,11111222,11111222' 
TABS,ioos:station:wmo:42043:1,2009-01-01T07:30:00Z,28.9818,-94.9186,4.0,8.111781555,91.20126352,10.4,'11111222,11111222,11111222' 
TABS,ioos:station:wmo:42043:1,2009-01-01T08:00:00Z,28.9818,-94.9186,4.0,7.506650385,98.19526947,10.21,'11111222,11111222,11111222' 
TABS,ioos:station:wmo:42043:1,2009-01-01T08:30:00Z,28.9818,-94.9186,4.0,7.346577434,101.065606,9.6,'11111222,11111222,11111222' 
TABS,ioos:station:wmo:42043:1,2009-01-01T09:00:00Z,28.9818,-94.9186,4.0,7.12017556,90.40277136,9.04,'11111222,11111222,11111222' 
TABS,ioos:station:wmo:42043:1,2009-01-01T09:30:00Z,28.9818,-94.9186,4.0,6.799536749,93.03534548,8.71,'11111222,11111222,11111222' 
TABS,ioos:station:wmo:42043:1,2009-01-01T10:00:00Z,28.9818,-94.9186,4.0,6.110130931,89.6244902,8.08,'11111222,11111222,11111222' 
TABS,ioos:station:wmo:42043:1,2009-01-01T10:30:00Z,28.9818,-94.9186,4.0,6.078980178,85.47076544,8.08,'11111222,11111222,11111222' 
TABS,ioos:station:wmo:42043:1,2009-01-01T11:00:00Z,28.9818,-94.9186,4.0,6.051189966,88.86328552,8.15,'11111222,11111222,11111222' 
TABS,ioos:station:wmo:42043:1,2009-01-01T11:30:00Z,28.9818,-94.9186,4.0,5.251675923,93.82174404,7.08,'11111222,11111222,11111222' 
TABS,ioos:station:wmo:42043:1,2009-01-01T12:00:00Z,28.9818,-94.9186,4.0,5.236458727,92.84642741,6.59,'11111222,11111222,11111222' 
TABS,ioos:station:wmo:42043:1,2009-01-01T12:30:00Z,28.9818,-94.9186,4.0,6.091518694,96.69375724,7.54,'11111222,11111222,11111222' 
TABS,ioos:station:wmo:42043:1,2009-01-01T13:00:00Z,28.9818,-94.9186,4.0,4.250705824,83.10864259,5.2,'11111222,11111222,11111222' 
TABS,ioos:station:wmo:42043:1,2009-01-01T13:30:00Z,28.9818,-94.9186,4.0,4.139480644,93.87893635,5.29,'11111222,11111222,11111222' 
TABS,ioos:station:wmo:42043:1,2009-01-01T14:00:00Z,28.9818,-94.9186,4.0,3.395069955,102.0715761,4.14,'11111222,11111222,11111222' 
TABS,ioos:station:wmo:42043:1,2009-01-01T14:30:00Z,28.9818,-94.9186,4.0,4.094007816,104.1384602,4.7,'11111222,11111222,11111222' 
TABS,ioos:station:wmo:42043:1,2009-01-01T15:00:00Z,28.9818,-94.9186,4.0,3.86998708,99.2193255,4.78,'11111222,11111222,11111222' 
TABS,ioos:station:wmo:42043:1,2009-01-01T15:30:00Z,28.9818,-94.9186,4.0,3.156263614,70.76097955,4.07,'11111222,11111222,11111222' 
TABS,ioos:station:wmo:42043:1,2009-01-01T16:00:00Z,28.9818,-94.9186,4.0,3.238054972,76.60711265,4.06,'11111222,11111222,11111222' 
TABS,ioos:station:wmo:42043:1,2009-01-01T16:30:00Z,28.9818,-94.9186,4.0,3.381552898,70.11785054,4.51,'11111222,11111222,11111222' 
TABS,ioos:station:wmo:42043:1,2009-01-01T17:00:00Z,28.9818,-94.9186,4.0,3.377336228,71.35008394,4.38,'11111222,11111222,11111222' 
TABS,ioos:station:wmo:42043:1,2009-01-01T17:30:00Z,28.9818,-94.9186,4.0,3.083666649,65.6786993,3.99,'11111222,11111222,11111222' 
TABS,ioos:station:wmo:42043:1,2009-01-01T18:00:00Z,28.9818,-94.9186,4.0,3.353863444,77.95257676,4.28,'11111222,11111222,11111222' 
TABS,ioos:station:wmo:42043:1,2009-01-01T18:30:00Z,28.9818,-94.9186,4.0,3.49755629,84.25639865,4.52,'11111222,11111222,11111222' 
TABS,ioos:station:wmo:42043:1,2009-01-01T19:00:00Z,28.9818,-94.9186,4.0,3.28635056,80.3653066,4.15,'11111222,11111222,11111222' 
TABS,ioos:station:wmo:42043:1,2009-01-01T19:30:00Z,28.9818,-94.9186,4.0,2.914944253,81.1189407,3.76,'11111222,11111222,11111222' 
TABS,ioos:station:wmo:42043:1,2009-01-01T20:00:00Z,28.9818,-94.9186,4.0,2.198658682,102.0769491,2.75,'11111222,11111222,11111222' 
TABS,ioos:station:wmo:42043:1,2009-01-01T20:30:00Z,28.9818,-94.9186,4.0,1.760710084,91.62770043,2.25,'11111222,11111222,11111222' 
TABS,ioos:station:wmo:42043:1,2009-01-01T21:00:00Z,28.9818,-94.9186,4.0,1.897076699,77.20872979,2.53,'11111222,11111222,11111222' 
TABS,ioos:station:wmo:42043:1,2009-01-01T21:30:00Z,28.9818,-94.9186,4.0,2.21882852,56.0231145,2.66,'11111222,11111222,11111222' 
TABS,ioos:station:wmo:42043:1,2009-01-01T22:00:00Z,28.9818,-94.9186,4.0,2.544484231,69.28545268,3.09,'11111222,11111222,11111222' 
TABS,ioos:station:wmo:42043:1,2009-01-01T22:30:00Z,28.9818,-94.9186,4.0,3.111173412,58.40421553,4.09,'11111222,11111222,11111222' 
TABS,ioos:station:wmo:42043:1,2009-01-01T23:00:00Z,28.9818,-94.9186,4.0,3.567534162,68.97364787,4.19,'11111222,11111222,11111222' 
TABS,ioos:station:wmo:42043:1,2009-01-01T23:30:00Z,28.9818,-94.9186,4.0,3.522044861,91.9529254,4.37,'11111222,11111222,11111222' 
TABS,ioos:station:wmo:42043:1,2009-01-02T00:00:00Z,28.9818,-94.9186,4.0,2.915081474,124.2355468,3.54,'11111222,11111222,11111222' 
TABS,ioos:station:wmo:42043:1,2009-01-02T00:30:00Z,28.9818,-94.9186,4.0,2.577692767,120.5447831,3.09,'11111222,11111222,11111222' 
TABS,ioos:station:wmo:42043:1,2009-01-02T01:00:00Z,28.9818,-94.9186,4.0,2.678395042,125.8861619,3.44,'11111222,11111222,11111222' 
TABS,ioos:station:wmo:42043:1,2009-01-02T01:30:00Z,28.9818,-94.9186,4.0,3.123027377,121.2472773,3.69,'11111222,11111222,11111222' 
TABS,ioos:station:wmo:42043:1,2009-01-02T02:00:00Z,28.9818,-94.9186,4.0,3.080016234,126.6842082,3.57,'11111222,11111222,11111222' 
TABS,ioos:station:wmo:42043:1,2009-01-02T02:30:00Z,28.9818,-94.9186,4.0,3.344801937,134.394676,3.92,'11111222,11111222,11111222' 
TABS,ioos:station:wmo:42043:1,2009-01-02T03:00:00Z,28.9818,-94.9186,4.0,3.31651926,135.6111203,3.83,'11111222,11111222,11111222' 
TABS,ioos:station:wmo:42043:1,2009-01-02T03:30:00Z,28.9818,-94.9186,4.0,3.955363447,158.4947423,4.77,'11111222,11111222,11111222' 
TABS,ioos:station:wmo:42043:1,2009-01-02T04:00:00Z,28.9818,-94.9186,4.0,4.545261269,164.0375368,5.35,'11111222,11111222,11111222' 
TABS,ioos:station:wmo:42043:1,2009-01-02T04:30:00Z,28.9818,-94.9186,4.0,4.566399019,167.607526,5.29,'11111222,11111222,11111222' 
TABS,ioos:station:wmo:42043:1,2009-01-02T05:00:00Z,28.9818,-94.9186,4.0,3.620013812,179.8419356,4.43,'11111222,11111222,11111222' 
TABS,ioos:station:wmo:42043:1,2009-01-02T05:30:00Z,28.9818,-94.9186,4.0,4.267329376,183.3587789,5.12,'11111222,11111222,11111222' 
TABS,ioos:station:wmo:42043:1,2009-01-02T06:00:00Z,28.9818,-94.9186,4.0,5.250904684,197.0547653,6.38,'11111222,11111222,11111222' 
TABS,ioos:station:wmo:42043:1,2009-01-02T06:30:00Z,28.9818,-94.9186,4.0,5.65862174,186.698201,6.66,'11111222,11111222,11111222' 
TABS,ioos:station:wmo:42043:1,2009-01-02T07:00:00Z,28.9818,-94.9186,4.0,3.787162526,195.4675969,4.67,'11111222,11111222,11111222' 
TABS,ioos:station:wmo:42043:1,2009-01-02T07:30:00Z,28.9818,-94.9186,4.0,3.242298567,206.5651995,4.04,'11111222,11111222,11111222' 
TABS,ioos:station:wmo:42043:1,2009-01-02T08:00:00Z,28.9818,-94.9186,4.0,3.148539344,205.9955173,3.95,'11111222,11111222,11111222' 
TABS,ioos:station:wmo:42043:1,2009-01-02T08:30:00Z,28.9818,-94.9186,4.0,2.899275772,202.9392573,3.78,'11111222,11111222,11111222' 
TABS,ioos:station:wmo:42043:1,2009-01-02T09:00:00Z,28.9818,-94.9186,4.0,2.433125562,215.1271888,2.95,'11111222,11111222,11111222' 
TABS,ioos:station:wmo:42043:1,2009-01-02T09:30:00Z,28.9818,-94.9186,4.0,2.261769219,201.801569,2.69,'11111222,11111222,11111222' 
TABS,ioos:station:wmo:42043:1,2009-01-02T10:00:00Z,28.9818,-94.9186,4.0,2.294275485,176.5017741,2.84,'11111222,11111222,11111222' 
TABS,ioos:station:wmo:42043:1,2009-01-02T10:30:00Z,28.9818,-94.9186,4.0,1.747483906,168.1115802,2.54,'11111222,11111222,11111222' 
TABS,ioos:station:wmo:42043:1,2009-01-02T11:00:00Z,28.9818,-94.9186,4.0,1.300153837,180.8816124,1.69,'11111222,11111222,11111222' 
TABS,ioos:station:wmo:42043:1,2009-01-02T11:30:00Z,28.9818,-94.9186,4.0,0.497393205,120.1738704,1.13,'11111222,11111222,11111222' 
TABS,ioos:station:wmo:42043:1,2009-01-02T12:00:00Z,28.9818,-94.9186,4.0,1.297574661,353.8058991,3.44,'11111222,11111222,11111222' 
TABS,ioos:station:wmo:42043:1,2009-01-02T12:30:00Z,28.9818,-94.9186,4.0,1.596778006,25.60191722,2.45,'11111222,11111222,11111222' 
TABS,ioos:station:wmo:42043:1,2009-01-02T13:00:00Z,28.9818,-94.9186,4.0,1.345362405,41.98690385,1.87,'11111222,11111222,11111222' 
TABS,ioos:station:wmo:42043:1,2009-01-02T13:30:00Z,28.9818,-94.9186,4.0,1.010791769,87.73162985,1.53,'11111222,11111222,11111222' 
TABS,ioos:station:wmo:42043:1,2009-01-02T14:00:00Z,28.9818,-94.9186,4.0,1.596621433,102.2956586,2.22,'11111222,11111222,11111222' 
TABS,ioos:station:wmo:42043:1,2009-01-02T14:30:00Z,28.9818,-94.9186,4.0,1.876832438,131.760623,2.32,'11111222,11111222,11111222' 
TABS,ioos:station:wmo:42043:1,2009-01-02T15:00:00Z,28.9818,-94.9186,4.0,1.675380554,124.5440895,2.07,'11111222,11111222,11111222' 
TABS,ioos:station:wmo:42043:1,2009-01-02T15:30:00Z,28.9818,-94.9186,4.0,1.815709228,139.4674643,2.18,'11111222,11111222,11111222' 
TABS,ioos:station:wmo:42043:1,2009-01-02T16:00:00Z,28.9818,-94.9186,4.0,1.63294213,118.1347611,2.04,'11111222,11111222,11111222' 
TABS,ioos:station:wmo:42043:1,2009-01-02T16:30:00Z,28.9818,-94.9186,4.0,0.690651866,92.48996802,0.99,'11111222,11111222,11111222' 
TABS,ioos:station:wmo:42043:1,2009-01-02T17:00:00Z,28.9818,-94.9186,4.0,0.684689711,83.28975797,1.18,'11111222,11111222,11111222' 
TABS,ioos:station:wmo:42043:1,2009-01-02T17:30:00Z,28.9818,-94.9186,4.0,1.727425831,174.6856772,2.19,'11111222,11111222,11111222' 
TABS,ioos:station:wmo:42043:1,2009-01-02T18:00:00Z,28.9818,-94.9186,4.0,2.07,180.0002105,2.48,'11111222,11111222,11111222' 
TABS,ioos:station:wmo:42043:1,2009-01-02T18:30:00Z,28.9818,-94.9186,4.0,1.839836949,174.0727201,2.23,'11111222,11111222,11111222' 
TABS,ioos:station:wmo:42043:1,2009-01-02T19:00:00Z,28.9818,-94.9186,4.0,2.680764816,185.1365769,3.35,'11111222,11111222,11111222' 
TABS,ioos:station:wmo:42043:1,2009-01-02T19:30:00Z,28.9818,-94.9186,4.0,2.695514793,187.8898098,3.07,'11111222,11111222,11111222' 
TABS,ioos:station:wmo:42043:1,2009-01-02T20:00:00Z,28.9818,-94.9186,4.0,2.42860042,172.9044731,2.83,'11111222,11111222,11111222' 
TABS,ioos:station:wmo:42043:1,2009-01-02T20:30:00Z,28.9818,-94.9186,4.0,2.630304165,167.7077014,3.17,'11111222,11111222,11111222' 
TABS,ioos:station:wmo:42043:1,2009-01-02T21:00:00Z,28.9818,-94.9186,4.0,2.940493156,167.429163,3.59,'11111222,11111222,11111222' 
TABS,ioos:station:wmo:42043:1,2009-01-02T21:30:00Z,28.9818,-94.9186,4.0,2.842551671,170.0739882,3.39,'11111222,11111222,11111222' 
TABS,ioos:station:wmo:42043:1,2009-01-02T22:00:00Z,28.9818,-94.9186,4.0,2.59,161.0756103,2.96,'11111222,11111222,11111222' 
TABS,ioos:station:wmo:42043:1,2009-01-02T22:30:00Z,28.9818,-94.9186,4.0,2.719191056,152.8698222,3.2,'11111222,11111222,11111222' 
TABS,ioos:station:wmo:42043:1,2009-01-02T23:00:00Z,28.9818,-94.9186,4.0,2.619045628,141.5113199,3.46,'11111222,11111222,11111222' 
TABS,ioos:station:wmo:42043:1,2009-01-02T23:30:00Z,28.9818,-94.9186,4.0,3.084444845,158.5093009,3.52,'11111222,11111222,11111222' 
TABS,ioos:station:wmo:42043:1,2009-01-03T00:00:00Z,28.9818,-94.9186,4.0,3.394657567,157.6660303,3.85,'11111222,11111222,11111222' 
TABS,ioos:station:wmo:42043:1,2009-01-03T00:30:00Z,28.9818,-94.9186,4.0,4.14334406,159.0719587,4.73,'11111222,11111222,11111222' 
TABS,ioos:station:wmo:42043:1,2009-01-03T01:00:00Z,28.9818,-94.9186,4.0,3.712142239,152.7449458,4.24,'11111222,11111222,11111222' 
TABS,ioos:station:wmo:42043:1,2009-01-03T01:30:00Z,28.9818,-94.9186,4.0,4.130326864,160.7756751,4.64,'11111222,11111222,11111222' 
TABS,ioos:station:wmo:42043:1,2009-01-03T02:00:00Z,28.9818,-94.9186,4.0,3.644077387,156.0377775,4.21,'11111222,11111222,11111222' 
TABS,ioos:station:wmo:42043:1,2009-01-03T02:30:00Z,28.9818,-94.9186,4.0,4.460549294,166.6493963,4.98,'11111222,11111222,11111222' 
TABS,ioos:station:wmo:42043:1,2009-01-03T03:00:00Z,28.9818,-94.9186,4.0,4.405053916,161.6064359,4.92,'11111222,11111222,11111222' 
TABS,ioos:station:wmo:42043:1,2009-01-03T03:30:00Z,28.9818,-94.9186,4.0,4.10182886,172.8578852,4.72,'11111222,11111222,11111222' 
TABS,ioos:station:wmo:42043:1,2009-01-03T04:00:00Z,28.9818,-94.9186,4.0,4.395383942,171.7595179,5.09,'11111222,11111222,11111222' 
TABS,ioos:station:wmo:42043:1,2009-01-03T04:30:00Z,28.9818,-94.9186,4.0,4.432268042,168.9438233,5.05,'11111222,11111222,11111222' 
TABS,ioos:station:wmo:42043:1,2009-01-03T05:00:00Z,28.9818,-94.9186,4.0,4.59200392,169.8404683,5.39,'11111222,11111222,11111222' 
TABS,ioos:station:wmo:42043:1,2009-01-03T05:30:00Z,28.9818,-94.9186,4.0,4.203153578,167.9150024,5.04,'11111222,11111222,11111222' 
TABS,ioos:station:wmo:42043:1,2009-01-03T06:00:00Z,28.9818,-94.9186,4.0,4.054442008,167.6093828,4.77,'11111222,11111222,11111222' 
TABS,ioos:station:wmo:42043:1,2009-01-03T06:30:00Z,28.9818,-94.9186,4.0,3.871382182,168.9805534,4.57,'11111222,11111222,11111222' 
TABS,ioos:station:wmo:42043:1,2009-01-03T07:00:00Z,28.9818,-94.9186,4.0,3.607214992,163.5748539,4.14,'11111222,11111222,11111222' 
TABS,ioos:station:wmo:42043:1,2009-01-03T07:30:00Z,28.9818,-94.9186,4.0,3.093800252,163.0881432,3.69,'11111222,11111222,11111222' 
TABS,ioos:station:wmo:42043:1,2009-01-03T08:00:00Z,28.9818,-94.9186,4.0,2.877585794,167.5578182,3.36,'11111222,11111222,11111222' 
TABS,ioos:station:wmo:42043:1,2009-01-03T08:30:00Z,28.9818,-94.9186,4.0,2.732215218,182.3075781,3.45,'11111222,11111222,11111222' 
TABS,ioos:station:wmo:42043:1,2009-01-03T09:00:00Z,28.9818,-94.9186,4.0,2.860279707,186.8270568,3.32,'11111222,11111222,11111222' 
TABS,ioos:station:wmo:42043:1,2009-01-03T09:30:00Z,28.9818,-94.9186,4.0,2.820815485,194.5783242,3.34,'11111222,11111222,11111222' 
TABS,ioos:station:wmo:42043:1,2009-01-03T10:00:00Z,28.9818,-94.9186,4.0,2.852805637,187.2497657,3.64,'11111222,11111222,11111222' 
TABS,ioos:station:wmo:42043:1,2009-01-03T10:30:00Z,28.9818,-94.9186,4.0,2.543265617,189.2773281,3.36,'11111222,11111222,11111222' 
TABS,ioos:station:wmo:42043:1,2009-01-03T11:00:00Z,28.9818,-94.9186,4.0,4.97197144,181.6137456,6.57,'11111222,11111222,11111222' 
TABS,ioos:station:wmo:42043:1,2009-01-03T11:30:00Z,28.9818,-94.9186,4.0,6.172074206,178.5147568,7.56,'11111222,11111222,11111222' 
TABS,ioos:station:wmo:42043:1,2009-01-03T12:00:00Z,28.9818,-94.9186,4.0,5.126763111,197.4808661,8.12,'11111222,11111222,11111222' 
TABS,ioos:station:wmo:42043:1,2009-01-03T12:30:00Z,28.9818,-94.9186,4.0,9.853943373,190.4662528,12.49,'11111222,11111222,11111222' 
TABS,ioos:station:wmo:42043:1,2009-01-03T13:00:00Z,28.9818,-94.9186,4.0,7.82205216,174.0563969,9.61,'11111222,11111222,11111222' 
TABS,ioos:station:wmo:42043:1,2009-01-03T13:30:00Z,28.9818,-94.9186,4.0,9.008051954,176.3723061,12.02,'11111222,11111222,11111222' 
TABS,ioos:station:wmo:42043:1,2009-01-03T14:00:00Z,28.9818,-94.9186,4.0,12.07760324,192.5289889,15.08,'11111222,11111222,11111222' 
TABS,ioos:station:wmo:42043:1,2009-01-03T14:30:00Z,28.9818,-94.9186,4.0,9.775765955,188.8265608,12.03,'11111222,11111222,11111222' 
TABS,ioos:station:wmo:42043:1,2009-01-03T15:00:00Z,28.9818,-94.9186,4.0,7.746153884,183.7011121,9.69,'11111222,11111222,11111222' 
TABS,ioos:station:wmo:42043:1,2009-01-03T15:30:00Z,28.9818,-94.9186,4.0,7.600164472,180.3771501,9.66,'11111222,11111222,11111222' 
TABS,ioos:station:wmo:42043:1,2009-01-03T16:00:00Z,28.9818,-94.9186,4.0,6.996120353,174.1755448,8.98,'11111222,11111222,11111222' 
TABS,ioos:station:wmo:42043:1,2009-01-03T16:30:00Z,28.9818,-94.9186,4.0,6.633626459,170.8928974,8.05,'11111222,11111222,11111222' 
TABS,ioos:station:wmo:42043:1,2009-01-03T17:00:00Z,28.9818,-94.9186,4.0,6.280127387,170.8378848,7.7,'11111222,11111222,11111222' 
TABS,ioos:station:wmo:42043:1,2009-01-03T17:30:00Z,28.9818,-94.9186,4.0,6.134313328,182.1489576,7.51,'11111222,11111222,11111222' 
TABS,ioos:station:wmo:42043:1,2009-01-03T18:00:00Z,28.9818,-94.9186,4.0,4.035207554,184.9760898,4.96,'11111222,11111222,11111222' 
TABS,ioos:station:wmo:42043:1,2009-01-03T18:30:00Z,28.9818,-94.9186,4.0,2.19,270.0,2.65,'11111222,11111222,11111222' 
TABS,ioos:station:wmo:42043:1,2009-01-03T19:00:00Z,28.9818,-94.9186,4.0,1.485294584,331.8819856,2.07,'11111222,11111222,11111222' 
TABS,ioos:station:wmo:42043:1,2009-01-03T19:30:00Z,28.9818,-94.9186,4.0,1.31552271,341.8403415,2.06,'11111222,11111222,11111222' 
TABS,ioos:station:wmo:42043:1,2009-01-03T20:00:00Z,28.9818,-94.9186,4.0,0.572450871,332.9871874,1.1,'11111222,11111222,11111222' 
TABS,ioos:station:wmo:42043:1,2009-01-03T20:30:00Z,28.9818,-94.9186,4.0,0.975756117,65.79866408,1.75,'11111222,11111222,11111222' 
TABS,ioos:station:wmo:42043:1,2009-01-03T21:00:00Z,28.9818,-94.9186,4.0,1.090733698,87.89792967,1.59,'11111222,11111222,11111222' 
TABS,ioos:station:wmo:42043:1,2009-01-03T21:30:00Z,28.9818,-94.9186,4.0,1.50146595,131.760623,2.35,'11111222,11111222,11111222' 
TABS,ioos:station:wmo:42043:1,2009-01-03T22:00:00Z,28.9818,-94.9186,4.0,2.434296613,125.9757962,3.04,'11111222,11111222,11111222' 
TABS,ioos:station:wmo:42043:1,2009-01-03T22:30:00Z,28.9818,-94.9186,4.0,2.519146681,125.1414208,3.15,'11111222,11111222,11111222' 
TABS,ioos:station:wmo:42043:1,2009-01-03T23:00:00Z,28.9818,-94.9186,4.0,3.015045605,122.9525121,3.88,'11111222,11111222,11111222' 
TABS,ioos:station:wmo:42043:1,2009-01-03T23:30:00Z,28.9818,-94.9186,4.0,2.592006944,127.0028609,3.22,'11111222,11111222,11111222' 
TABS,ioos:station:wmo:42043:1,2009-01-04T00:00:00Z,28.9818,-94.9186,4.0,2.419938016,130.1393619,3.23,'11111222,11111222,11111222' 
TABS,ioos:station:wmo:42043:1,2009-01-04T00:30:00Z,28.9818,-94.9186,4.0,2.887801932,137.5264267,4.03,'11111222,11111222,11111222' 
TABS,ioos:station:wmo:42043:1,2009-01-04T01:00:00Z,28.9818,-94.9186,4.0,4.138792094,156.6562541,4.84,'11111222,11111222,11111222' 
TABS,ioos:station:wmo:42043:1,2009-01-04T01:30:00Z,28.9818,-94.9186,4.0,3.93101768,153.5655867,4.62,'11111222,11111222,11111222' 
TABS,ioos:station:wmo:42043:1,2009-01-04T02:00:00Z,28.9818,-94.9186,4.0,3.781335743,151.4019105,4.53,'11111222,11111222,11111222' 
TABS,ioos:station:wmo:42043:1,2009-01-04T02:30:00Z,28.9818,-94.9186,4.0,3.570014006,142.9699074,4.2,'11111222,11111222,11111222' 
TABS,ioos:station:wmo:42043:1,2009-01-04T03:00:00Z,28.9818,-94.9186,4.0,3.253997541,130.8880965,4.13,'11111222,11111222,11111222' 
TABS,ioos:station:wmo:42043:1,2009-01-04T03:30:00Z,28.9818,-94.9186,4.0,2.650471656,142.0494774,3.49,'11111222,11111222,11111222' 
TABS,ioos:station:wmo:42043:1,2009-01-04T04:00:00Z,28.9818,-94.9186,4.0,2.836353293,154.9711719,3.56,'11111222,11111222,11111222' 
TABS,ioos:station:wmo:42043:1,2009-01-04T04:30:00Z,28.9818,-94.9186,4.0,3.110450128,170.7498912,3.74,'11111222,11111222,11111222' 
TABS,ioos:station:wmo:42043:1,2009-01-04T05:00:00Z,28.9818,-94.9186,4.0,3.24040121,163.6905351,3.92,'11111222,11111222,11111222' 
TABS,ioos:station:wmo:42043:1,2009-01-04T05:30:00Z,28.9818,-94.9186,4.0,3.447230773,149.4926014,4.08,'11111222,11111222,11111222' 
TABS,ioos:station:wmo:42043:1,2009-01-04T06:00:00Z,28.9818,-94.9186,4.0,3.851298482,156.4305177,4.61,'11111222,11111222,11111222' 
TABS,ioos:station:wmo:42043:1,2009-01-04T06:30:00Z,28.9818,-94.9186,4.0,3.051884664,151.419784,3.6,'11111222,11111222,11111222' 
TABS,ioos:station:wmo:42043:1,2009-01-04T07:00:00Z,28.9818,-94.9186,4.0,2.816025568,149.2458883,3.33,'11111222,11111222,11111222' 
TABS,ioos:station:wmo:42043:1,2009-01-04T07:30:00Z,28.9818,-94.9186,4.0,3.766430671,146.478986,4.46,'11111222,11111222,11111222' 
TABS,ioos:station:wmo:42043:1,2009-01-04T08:00:00Z,28.9818,-94.9186,4.0,2.576062887,142.7300478,3.23,'11111222,11111222,11111222' 
TABS,ioos:station:wmo:42043:1,2009-01-04T08:30:00Z,28.9818,-94.9186,4.0,2.366769951,149.5347368,3.19,'11111222,11111222,11111222' 
TABS,ioos:station:wmo:42043:1,2009-01-04T09:00:00Z,28.9818,-94.9186,4.0,2.984359228,149.826761,3.58,'11111222,11111222,11111222' 
TABS,ioos:station:wmo:42043:1,2009-01-04T09:30:00Z,28.9818,-94.9186,4.0,3.194698734,156.9665194,3.93,'11111222,11111222,11111222' 
TABS,ioos:station:wmo:42043:1,2009-01-04T10:00:00Z,28.9818,-94.9186,4.0,2.786198126,153.8030857,3.55,'11111222,11111222,11111222' 
TABS,ioos:station:wmo:42043:1,2009-01-04T10:30:00Z,28.9818,-94.9186,4.0,2.515889505,149.1536952,3.1,'11111222,11111222,11111222' 
TABS,ioos:station:wmo:42043:1,2009-01-04T11:00:00Z,28.9818,-94.9186,4.0,3.200281238,148.5452574,3.95,'11111222,11111222,11111222' 
TABS,ioos:station:wmo:42043:1,2009-01-04T11:30:00Z,28.9818,-94.9186,4.0,2.585498018,145.0808901,3.18,'11111222,11111222,11111222' 
TABS,ioos:station:wmo:42043:1,2009-01-04T12:00:00Z,28.9818,-94.9186,4.0,2.746142749,142.5461957,3.46,'11111222,11111222,11111222' 
TABS,ioos:station:wmo:42043:1,2009-01-04T12:30:00Z,28.9818,-94.9186,4.0,2.899327508,139.0560555,3.51,'11111222,11111222,11111222' 
TABS,ioos:station:wmo:42043:1,2009-01-04T13:00:00Z,28.9818,-94.9186,4.0,2.552038401,126.5559177,3.16,'11111222,11111222,11111222' 
TABS,ioos:station:wmo:42043:1,2009-01-04T13:30:00Z,28.9818,-94.9186,4.0,2.453487314,119.2817795,3.01,'11111222,11111222,11111222' 
TABS,ioos:station:wmo:42043:1,2009-01-04T14:00:00Z,28.9818,-94.9186,4.0,3.092975913,137.4898628,3.75,'11111222,11111222,11111222' 
TABS,ioos:station:wmo:42043:1,2009-01-04T14:30:00Z,28.9818,-94.9186,4.0,3.495883293,147.8559196,4.56,'11111222,11111222,11111222' 
TABS,ioos:station:wmo:42043:1,2009-01-04T15:00:00Z,28.9818,-94.9186,4.0,3.618756693,141.958678,5.27,'11111222,11111222,11111222' 
TABS,ioos:station:wmo:42043:1,2009-01-04T15:30:00Z,28.9818,-94.9186,4.0,5.026221245,160.2314118,6.51,'11111222,11111222,11111222' 
TABS,ioos:station:wmo:42043:1,2009-01-04T16:00:00Z,28.9818,-94.9186,4.0,4.493873607,158.4592849,5.59,'11111222,11111222,11111222' 
TABS,ioos:station:wmo:42043:1,2009-01-04T16:30:00Z,28.9818,-94.9186,4.0,2.358495283,147.9949021,2.96,'11111222,11111222,11111222' 
TABS,ioos:station:wmo:42043:1,2009-01-04T17:00:00Z,28.9818,-94.9186,4.0,3.29006079,127.2185299,4.16,'11111222,11111222,11111222' 
TABS,ioos:station:wmo:42043:1,2009-01-04T17:30:00Z,28.9818,-94.9186,4.0,3.609556759,152.4413446,4.56,'11111222,11111222,11111222' 
TABS,ioos:station:wmo:42043:1,2009-01-04T18:00:00Z,28.9818,-94.9186,4.0,2.518729839,159.5507107,3.01,'11111222,11111222,11111222' 
TABS,ioos:station:wmo:42043:1,2009-01-04T18:30:00Z,28.9818,-94.9186,4.0,2.562576828,150.0335387,3.25,'11111222,11111222,11111222' 